TimePDT,TemperatureF,Dew PointF,Humidity,Sea Level PressureIn,VisibilityMPH,Wind Direction,Wind SpeedMPH,Gust SpeedMPH,PrecipitationIn,Events,Conditions,WindDirDegrees,DateUTC
12:15 AM,59.0,59.0,100,29.85,10.0,SSW,6.9,-,0.00,,Clear,200,2013-08-23 07:15:00
12:35 AM,59.0,57.2,94,29.85,10.0,SSW,6.9,-,0.00,,Clear,200,2013-08-23 07:35:00
12:55 AM,59.0,57.2,94,29.85,10.0,South,4.6,-,0.00,,Clear,190,2013-08-23 07:55:00
1:15 AM,57.2,57.2,100,29.86,10.0,South,5.8,-,0.00,,Clear,190,2013-08-23 08:15:00
1:35 AM,57.2,57.2,100,29.86,10.0,South,4.6,-,0.00,,Clear,190,2013-08-23 08:35:00
1:55 AM,57.2,57.2,100,29.86,10.0,SSW,5.8,-,0.00,,Clear,200,2013-08-23 08:55:00
2:15 AM,55.4,55.4,100,29.86,10.0,South,5.8,-,0.00,,Clear,180,2013-08-23 09:15:00
2:35 AM,55.4,55.4,100,29.86,10.0,SSW,8.1,-,0.00,,Clear,200,2013-08-23 09:35:00
2:55 AM,55.4,55.4,100,29.87,10.0,SSW,4.6,-,0.00,,Clear,200,2013-08-23 09:55:00
3:15 AM,55.4,55.4,100,29.87,10.0,SSW,5.8,-,0.00,,Clear,200,2013-08-23 10:15:00
3:35 AM,55.4,55.4,100,29.87,10.0,SSW,3.5,-,0.00,,Clear,200,2013-08-23 10:35:00
3:55 AM,55.4,55.4,100,29.88,10.0,South,4.6,-,0.00,,Clear,190,2013-08-23 10:55:00
4:15 AM,55.4,55.4,100,29.88,10.0,South,6.9,-,0.00,,Clear,170,2013-08-23 11:15:00
4:35 AM,55.4,55.4,100,29.88,10.0,South,6.9,-,0.00,,Mostly Cloudy,190,2013-08-23 11:35:00
4:55 AM,55.4,55.4,100,29.88,10.0,South,4.6,-,0.00,,Mostly Cloudy,190,2013-08-23 11:55:00
5:15 AM,55.4,55.4,100,29.88,10.0,SSE,4.6,-,0.00,,Scattered Clouds,150,2013-08-23 12:15:00
5:35 AM,55.4,55.4,100,29.88,5.0,SSE,4.6,-,0.00,,Overcast,160,2013-08-23 12:35:00
5:55 AM,55.4,55.4,100,29.87,4.0,SE,4.6,-,0.00,,Overcast,140,2013-08-23 12:55:00
6:15 AM,55.4,55.4,100,29.87,3.0,SE,3.5,-,0.00,,Overcast,130,2013-08-23 13:15:00
6:35 AM,55.4,55.4,100,29.87,10.0,SE,4.6,-,0.00,,Overcast,130,2013-08-23 13:35:00
6:55 AM,57.2,57.2,100,29.87,10.0,SE,4.6,-,0.00,,Overcast,130,2013-08-23 13:55:00
7:15 AM,57.2,57.2,100,29.87,8.0,SSE,4.6,-,0.00,,Mostly Cloudy,150,2013-08-23 14:15:00
7:35 AM,57.2,57.2,100,29.88,10.0,South,3.5,-,0.00,,Mostly Cloudy,170,2013-08-23 14:35:00
7:55 AM,57.2,57.2,100,29.88,10.0,South,3.5,-,0.00,,Scattered Clouds,170,2013-08-23 14:55:00
8:15 AM,57.2,57.2,100,29.88,10.0,Calm,Calm,-,0.00,,Overcast,0,2013-08-23 15:15:00
8:35 AM,59.0,59.0,100,29.89,10.0,South,3.5,-,0.00,,Overcast,180,2013-08-23 15:35:00
8:55 AM,60.8,60.8,100,29.88,10.0,SE,3.5,-,0.00,,Overcast,130,2013-08-23 15:55:00
9:15 AM,60.8,60.8,100,29.89,9.0,SSE,4.6,-,0.00,,Overcast,150,2013-08-23 16:15:00
9:35 AM,62.6,62.6,100,29.89,-9999.0,SSW,8.1,-,0.00,,Overcast,210,2013-08-23 16:35:00
9:55 AM,62.6,60.8,94,29.89,10.0,SSW,8.1,-,0.00,,Overcast,210,2013-08-23 16:55:00
10:15 AM,62.6,60.8,94,29.90,10.0,SSW,8.1,-,0.00,,Overcast,200,2013-08-23 17:15:00
10:35 AM,62.6,62.6,100,29.90,10.0,South,6.9,-,0.00,,Overcast,190,2013-08-23 17:35:00
10:55 AM,64.4,60.8,88,29.90,10.0,South,8.1,-,0.00,,Overcast,180,2013-08-23 17:55:00
11:15 AM,64.4,60.8,88,29.90,10.0,South,6.9,-,0.00,,Overcast,190,2013-08-23 18:15:00
11:35 AM,66.2,60.8,83,29.90,9.0,SSE,9.2,-,0.00,,Overcast,150,2013-08-23 18:35:00
11:55 AM,68.0,60.8,78,29.89,10.0,South,12.7,16.1,0.00,,Overcast,170,2013-08-23 18:55:00
12:15 PM,68.0,60.8,78,29.90,10.0,South,11.5,-,0.00,,Overcast,190,2013-08-23 19:15:00
12:35 PM,68.0,60.8,78,29.90,9.0,SSW,10.4,-,0.00,,Overcast,200,2013-08-23 19:35:00
12:55 PM,68.0,60.8,78,29.90,9.0,SSW,10.4,17.3,0.00,,Overcast,200,2013-08-23 19:55:00
1:15 PM,69.8,60.8,73,29.90,10.0,South,8.1,-,0.00,,Overcast,180,2013-08-23 20:15:00
1:35 PM,69.8,59.0,68,29.89,10.0,SSW,10.4,-,0.00,,Overcast,200,2013-08-23 20:35:00
1:55 PM,69.8,59.0,68,29.89,10.0,SSW,9.2,17.3,0.00,,Mostly Cloudy,200,2013-08-23 20:55:00
2:15 PM,71.6,59.0,64,29.89,-9999.0,SW,15.0,20.7,0.00,,Mostly Cloudy,220,2013-08-23 21:15:00
2:35 PM,73.4,60.8,65,29.89,10.0,South,9.2,16.1,0.00,,Partly Cloudy,190,2013-08-23 21:35:00
2:55 PM,73.4,57.2,57,29.90,9.0,South,9.2,17.3,0.00,,Scattered Clouds,190,2013-08-23 21:55:00
3:15 PM,73.4,57.2,57,29.89,-9999.0,South,9.2,-,0.00,,Mostly Cloudy,190,2013-08-23 22:15:00
3:35 PM,73.4,59.0,61,29.88,10.0,South,9.2,-,0.00,,Overcast,190,2013-08-23 22:35:00
3:55 PM,73.4,60.8,65,29.88,10.0,SSW,5.8,-,0.00,,Mostly Cloudy,200,2013-08-23 22:55:00
4:15 PM,71.6,59.0,64,29.88,10.0,South,8.1,-,0.00,,Overcast,180,2013-08-23 23:15:00
4:35 PM,69.8,59.0,68,29.89,10.0,West,5.8,-,0.00,,Overcast,270,2013-08-23 23:35:00
4:55 PM,68.0,59.0,73,29.88,10.0,NW,6.9,-,0.00,,Overcast,310,2013-08-23 23:55:00
5:15 PM,69.8,59.0,68,29.88,10.0,West,6.9,-,0.00,,Mostly Cloudy,280,2013-08-24 00:15:00
5:35 PM,69.8,59.0,68,29.88,10.0,WNW,4.6,-,0.00,,Mostly Cloudy,290,2013-08-24 00:35:00
5:55 PM,69.8,59.0,68,29.87,10.0,WNW,3.5,-,0.00,,Scattered Clouds,290,2013-08-24 00:55:00
6:15 PM,69.8,59.0,68,29.87,-9999.0,NW,3.5,-,0.00,,Clear,320,2013-08-24 01:15:00
6:35 PM,69.8,59.0,68,29.87,-9999.0,Calm,Calm,-,0.00,,Clear,0,2013-08-24 01:35:00
6:55 PM,69.8,60.8,73,29.87,10.0,Calm,Calm,-,0.00,,Clear,0,2013-08-24 01:55:00
7:15 PM,68.0,60.8,78,29.86,10.0,SE,3.5,-,0.00,,Partly Cloudy,130,2013-08-24 02:15:00
7:35 PM,66.2,60.8,83,29.87,8.0,Calm,Calm,-,0.00,,Scattered Clouds,0,2013-08-24 02:35:00
7:55 PM,66.2,60.8,83,29.86,9.0,East,4.6,-,0.00,,Overcast,90,2013-08-24 02:55:00
8:15 PM,66.2,60.8,83,29.87,10.0,Calm,Calm,-,0.00,,Overcast,0,2013-08-24 03:15:00
8:35 PM,66.2,60.8,83,29.87,10.0,Calm,Calm,-,0.00,,Mostly Cloudy,0,2013-08-24 03:35:00
8:55 PM,66.2,60.8,83,29.87,10.0,Calm,Calm,-,0.00,,Mostly Cloudy,0,2013-08-24 03:55:00
9:15 PM,64.4,60.8,88,29.88,10.0,SW,3.5,-,0.00,,Overcast,230,2013-08-24 04:15:00
9:35 PM,64.4,60.8,88,29.88,9.0,WNW,5.8,-,0.00,,Overcast,290,2013-08-24 04:35:00
9:55 PM,64.4,60.8,88,29.89,10.0,WNW,4.6,-,0.00,,Overcast,300,2013-08-24 04:55:00
10:15 PM,62.6,57.2,82,29.89,10.0,WNW,5.8,-,0.00,,Overcast,290,2013-08-24 05:15:00
10:35 PM,62.6,57.2,82,29.89,10.0,NW,4.6,-,0.00,,Overcast,310,2013-08-24 05:35:00
10:55 PM,62.6,57.2,82,29.89,10.0,WNW,3.5,-,0.00,,Overcast,300,2013-08-24 05:55:00
11:15 PM,62.6,57.2,82,29.89,10.0,Calm,Calm,-,0.00,,Overcast,0,2013-08-24 06:15:00
11:35 PM,64.4,57.2,77,29.89,10.0,South,4.6,-,0.00,,Overcast,170,2013-08-24 06:35:00
11:55 PM,62.6,60.8,94,29.89,10.0,SSW,4.6,-,0.00,,Overcast,210,2013-08-24 06:55:00